Weather History for Covington, KY

Change the Weather History Date:

Monday, November 29, 2010

  Actual Average Record
Temperature  
Mean Temperature 46 °F 39 °F  
Max Temperature 59 °F 47 °F 73 °F (1927)
Min Temperature 32 °F 32 °F 3 °F (1976)
Degree Days  
Heating Degree Days 19 26  
Month to date heating degree days 584 572  
Since 1 July heating degree days 849 934  
Cooling Degree Days 0 0  
Month to date cooling degree days 2 0  
Year to date cooling degree days 1481 1121  
Moisture  
Dew Point 34 °F    
Average Humidity 68    
Maximum Humidity 86    
Minimum Humidity 50    
Precipitation  
Precipitation 0.24 in 0.13 in 0.86 in (2001)
Month to date precipitation 5.39 3.32  
Year to date precipitation 33.35 39.04  
Snow  
Snow 0.00 in 0.10 in 3.70 in (1952)
Month to date snowfall 0.2 0.4  
Since 1 July snowfall 0.2 0.8  
Since 1 September snowfall 0.2 0.8  
Snow Depth 0.00 in    
Sea Level Pressure  
Sea Level Pressure 30.09 in    
Wind  
Wind Speed 10 mph (SSE)    
Max Wind Speed 22 mph    
Max Gust Speed 29 mph    
Visibility 10 miles    
Events Rain    
T = Trace of Precipitation, MM = Missing Value Source: NWS Daily Summary

Daily Weather History Graph

Daily Weather History Graph

Search for Another Location

Airport:

Trip Planner

Search our weather history database for the weather conditions in past years. The results will help you decide how hot, cold, wet, or windy it might be!

Date:

Astronomy

Nov. 29, 2010 Rise Set
Actual Time 7:36 AM EST 5:17 PM EST
Civil Twilight 7:07 AM EST 5:46 PM EST
Nautical Twilight 6:34 AM EST 6:19 PM EST
Astronomical Twilight 6:02 AM EST 6:51 PM EST
Moon 12:45 AM EST (11/29) 1:15 PM EST (11/29)
Length of Visible Light 10h 39m
Length of Day
9h 40m
Last Quarter, 40% of the Moon is Illuminated
Nov 29
Last Quarter
Dec 5
New
Dec 13
First Quarter
Dec 21
Full
Dec 27
Last Quarter

Hourly Weather History & Observations

Time (EST) Temp. Windchill Dew Point Humidity Pressure Visibility Wind Dir Wind Speed Gust Speed Precip Events Conditions
12:52 AM 33.1 °F 30.0 °F 25.0 °F 72% 30.20 in 10.0 mi SE 3.5 mph - N/A   Clear
1:52 AM 34.0 °F 28.0 °F 25.0 °F 70% 30.19 in 10.0 mi SE 6.9 mph - N/A   Clear
2:52 AM 32.0 °F 27.5 °F 24.1 °F 73% 30.21 in 10.0 mi SSE 4.6 mph - N/A   Partly Cloudy
3:52 AM 33.1 °F 28.7 °F 24.1 °F 70% 30.21 in 10.0 mi SSE 4.6 mph - N/A   Scattered Clouds
4:52 AM 33.1 °F 30.0 °F 24.1 °F 70% 30.22 in 10.0 mi SSE 3.5 mph - N/A   Scattered Clouds
5:52 AM 32.0 °F 25.6 °F 25.0 °F 75% 30.23 in 10.0 mi SE 6.9 mph - N/A   Partly Cloudy
6:52 AM 32.0 °F 25.6 °F 25.0 °F 75% 30.23 in 10.0 mi SE 6.9 mph - N/A   Partly Cloudy
7:52 AM 33.8 °F 26.4 °F 26.6 °F 75% 30.21 in 10.0 mi SSE 9.2 mph - N/A   Partly Cloudy
8:52 AM 37.9 °F 31.5 °F 27.0 °F 65% 30.23 in 10.0 mi SSE 9.2 mph - N/A   Mostly Cloudy
9:52 AM 42.1 °F 35.2 °F 28.0 °F 58% 30.22 in 10.0 mi SSE 12.7 mph - N/A   Mostly Cloudy
10:52 AM 46.9 °F - 30.0 °F 52% 30.22 in 10.0 mi SSE 8.1 mph - N/A   Scattered Clouds
11:52 AM 52.0 °F - 34.0 °F 50% 30.17 in 10.0 mi SSE 15.0 mph - N/A   Scattered Clouds
12:52 PM 55.0 °F - 37.0 °F 51% 30.13 in 10.0 mi South 13.8 mph - N/A   Scattered Clouds
1:52 PM 55.9 °F - 37.0 °F 49% 30.07 in 10.0 mi SSE 11.5 mph - N/A   Partly Cloudy
2:52 PM 59.0 °F - 41.0 °F 51% 30.03 in 10.0 mi South 13.8 mph 23.0 mph N/A   Scattered Clouds
3:52 PM 57.9 °F - 39.9 °F 51% 30.03 in 10.0 mi SSE 12.7 mph 20.7 mph N/A   Overcast
4:52 PM 55.9 °F - 41.0 °F 57% 30.01 in 10.0 mi SE 10.4 mph - N/A   Overcast
5:52 PM 55.0 °F - 41.0 °F 59% 30.00 in 10.0 mi SE 10.4 mph - N/A   Overcast
6:52 PM 55.0 °F - 41.0 °F 59% 29.98 in 10.0 mi SE 15.0 mph - N/A   Overcast
7:52 PM 55.0 °F - 44.1 °F 67% 29.95 in 10.0 mi SE 13.8 mph - N/A   Overcast
8:52 PM 54.0 °F - 45.0 °F 72% 29.92 in 10.0 mi SE 11.5 mph - 0.00 in Rain Light Rain
9:52 PM 51.1 °F - 46.0 °F 83% 29.90 in 6.0 mi SE 12.7 mph - 0.05 in Rain Rain
10:52 PM 50.0 °F - 46.9 °F 89% 29.87 in 4.0 mi SE 10.4 mph - 0.12 in Rain Rain
11:52 PM 50.0 °F - 50.0 °F 100% 29.83 in 9.0 mi SSE 18.4 mph 28.8 mph 0.07 in Rain Light Rain